Simultaneous Nadir Overpasses (SNOs) Predictions

Prediction of SNOs between NOAA-20 and NOAA-19 Satellite Orbit:

Table of predicted SNOs for the next 14.0 days since TLE Epoch: 12/28/2018
Index Date (NOAA-20) Time (NOAA-20) Lat,Lon (NOAA-20) SZA (NOAA-20 ) Date (NOAA-19) Time (NOAA-19) Lat,Lon (NOAA-19) SZA (NOAA-19 ) Distance(km) Time Diff (sec)
1 12/29/2018 02:09:32 -80.29, -74.54 74.10 12/29/2018 02:08:20 -80.30, -74.45 74.06 2.71 72
2 12/29/2018 03:00:18 80.31, 92.51 105.95 12/29/2018 02:59:25 80.29, 92.50 105.96 2.15 53
3 12/29/2018 03:51:02 -80.29, -99.93 74.10 12/29/2018 03:50:21 -80.30, -99.96 74.07 1.98 41
4 12/29/2018 04:41:48 80.31, 67.12 105.95 12/29/2018 04:41:26 80.29, 66.99 105.96 3.35 22
5 12/29/2018 05:32:32 -80.29,-125.32 74.10 12/29/2018 05:32:22 -80.30,-125.46 74.07 3.22 10
6 12/29/2018 06:23:18 80.31, 41.73 105.95 12/29/2018 06:23:26 80.31, 41.81 105.93 1.55 8
7 12/29/2018 07:14:03 -80.31,-151.02 74.05 12/29/2018 07:14:23 -80.30,-150.97 74.07 1.62 20
8 12/29/2018 08:04:48 80.31, 16.34 105.95 12/29/2018 08:05:27 80.31, 16.30 105.93 0.92 39
9 12/29/2018 08:55:33 -80.32,-176.41 74.05 12/29/2018 08:56:24 -80.30,-176.47 74.08 1.84 51
10 12/29/2018 09:46:18 80.31, -9.04 105.95 12/29/2018 09:47:28 80.30, -9.21 105.93 3.14 70




NCC Satellite Simultaneous Nadir Overpasses (SNOs) Prediction Service
